Proserpine Hamilton Isla, Australia

2:05 PM AEST on December 03, 2016 (GMT +1000)
Hamilton Island

Weather History for YBHM - November, 2011

Change the Weather History Date:

Sunday, November 27, 2011

  Actual Average Record
Temperature  
Mean Temperature 79 °F -  
Max Temperature 83 °F - - ()
Min Temperature 75 °F - - ()
Cooling Degree Days 14    
Growing Degree Days 29 (Base 50)    
Moisture  
Dew Point 68 °F    
Average Humidity 68    
Maximum Humidity 78    
Minimum Humidity 47    
Precipitation  
Precipitation 0.00 in - - ()
Sea Level Pressure  
Sea Level Pressure 29.88 in    
Wind  
Wind Speed 9 mph ()    
Max Wind Speed 18 mph    
Max Gust Speed -    
T = Trace of Precipitation, MM = Missing Value Source: Averaged Metar Reports

Daily Weather History Graph

Daily Weather History Graph

Search for Another Location

Airport or City:

Trip Planner

Search our weather history database for the weather conditions in past years. The results will help you decide how hot, cold, wet, or windy it might be!

Date:

Astronomy

Nov. 27, 2011 Rise Set
Actual Time 5:14 AM AEST 6:28 PM AEST
Civil Twilight 4:50 AM AEST 6:52 PM AEST
Nautical Twilight 4:22 AM AEST 7:21 PM AEST
Astronomical Twilight 3:52 AM AEST 7:50 PM AEST
Moon 6:51 AM AEST (11/27) 8:31 PM AEST (11/27)
Length of Visible Light 14h 01m
Length of Day
13h 13m
Waxing Crescent, 5% of the Moon is Illuminated
Nov 27
Waxing Crescent
Dec 2
First Quarter
Dec 11
Full
Dec 18
Last Quarter
Dec 25
New

Hourly Weather History & Observations

Time (AEST) Temp. Heat Index Dew Point Humidity Pressure Visibility Wind Dir Wind Speed Gust Speed Precip Events Conditions
12:00 AM 76 °F - 68 °F 70% 29.88 in - ENE 5.8 mph - -  
12:00 AM 77.0 °F - 68.0 °F 74% 29.89 in - ENE 5.8 mph - N/A   Unknown
1:00 AM 77.0 °F - 68.0 °F 74% 29.86 in - ENE 3.5 mph - N/A   Unknown
2:00 AM 75.2 °F - 68.0 °F 78% 29.86 in - ENE 4.6 mph - N/A   Unknown
3:00 AM 76 °F - 68 °F 69% 29.84 in - ENE 4.6 mph - -  
3:00 AM 75.2 °F - 68.0 °F 78% 29.83 in - East 4.6 mph - N/A   Unknown
4:00 AM 75.2 °F - 68.0 °F 78% 29.83 in - East 2.3 mph - N/A   Unknown
5:00 AM 75.2 °F - 68.0 °F 78% 29.86 in - SE 8.1 mph - N/A   Unknown
6:00 AM 78 °F - 68 °F 65% 29.87 in - ESE 9.2 mph - -  
6:00 AM 77.0 °F - 68.0 °F 74% 29.86 in - ESE 9.2 mph - N/A   Unknown
7:00 AM 80.6 °F 83.9 °F 69.8 °F 70% 29.89 in - ESE 10.4 mph - N/A   Unknown
8:00 AM 82.4 °F 86.3 °F 69.8 °F 66% 29.89 in - ESE 9.2 mph - N/A   Unknown
9:00 AM 82 °F - 69 °F 55% 29.91 in - East 16.1 mph - -  
9:00 AM 80.6 °F 83.2 °F 68.0 °F 65% 29.92 in - East 16.1 mph - N/A   Unknown
10:00 AM 82.4 °F 85.4 °F 68.0 °F 62% 29.92 in - East 13.8 mph - N/A   Unknown
11:00 AM 82.4 °F 85.4 °F 68.0 °F 62% 29.92 in - East 11.5 mph - N/A   Unknown
12:00 PM 83 °F - 68 °F 52% 29.89 in - East 13.8 mph - -  
12:00 PM 82.4 °F 84.6 °F 66.2 °F 58% 29.89 in - East 15.0 mph - N/A   Unknown
1:00 PM 82.4 °F 85.4 °F 68.0 °F 62% 29.89 in - East 18.4 mph - N/A   Unknown
3:00 PM 81 °F - 64 °F 47% 29.86 in - East 15.0 mph - -  
3:00 PM 80.6 °F 82.7 °F 66.2 °F 61% 29.86 in - East 15.0 mph - N/A   Unknown
4:00 PM 80.6 °F 83.2 °F 68.0 °F 65% 29.86 in - East 13.8 mph - N/A   Unknown
5:00 PM 78.8 °F - 68.0 °F 69% 29.86 in - East 15.0 mph - N/A   Unknown
6:00 PM 78.8 °F - 68.0 °F 69% 29.86 in - East 16.1 mph - N/A   Unknown
7:00 PM 78.8 °F - 68.0 °F 69% 29.89 in - East 15.0 mph - N/A   Unknown
8:00 PM 78.8 °F - 69.8 °F 74% 29.89 in - East 13.8 mph - N/A   Unknown
9:00 PM 78 °F - 70 °F 70% 29.92 in - East 15.0 mph - -  
9:00 PM 78.8 °F - 69.8 °F 74% 29.92 in - East 15.0 mph - N/A   Unknown
10:00 PM 78.8 °F - 69.8 °F 74% 29.92 in - East 13.8 mph - N/A   Unknown
11:00 PM 78.8 °F - 71.6 °F 78% 29.92 in - East 10.4 mph - N/A   Unknown